LiveATC.Net - Listen to live air traffic control over the Internet!


ICAO: KHNB  IATA: HNB   Airport: Huntingburg Airport
City: Huntingburg   State/Province: Indiana
Country: United States   Continent: North America
KHNB METAR Weather: KHNB 051856Z AUTO 00000KT 10SM BKN060 24/13 A3012 RMK AO2 SLP196 T02440133
KHNB Flight Activity (FlightAware)
KHNB Airport Info   (iFlightPlanner)
KHNB VFR Sectional Chart   (iFlightPlanner) 
KHNB IFR Low Chart   (iFlightPlanner) 

KHNB CTAF
Feed Status: DOWN
Last heard on: 2019-12-20 05:10:40 (229 days 14 hours 11 minutes ago)
Archive Access: KHNB CTAF
FacilityFrequency
Huntingburg CTAF122.800

NOTICE

Unauthorized use prohibited. See LiveATC.net Terms of Service


Airport/ARTCC Code
Frequency Search
(e.g., 124.400, 128.75)
Site-wide search
 


Browse Feeds
Top 50 Feeds
Coverage Map
Bad Weather Areas

LiveATC FAQ
Offer LiveATC feed
Contact LiveATC.net
Press Inquiries

LiveATC on iPhone
LiveATC on Android

Windows Phone
Windows 8/10

LiveATC Mobile
(Mobile browser)

ATC Audio Archives
Interesting Recordings

LiveATC Forums


Home Page
About LiveATC.net
Make a Donation
Terms of Use
Privacy Policy

Canadian Air Freqs

AIRMETs/SIGMETs

FAA Airport Status
Nat'l Airspace Status
Arrival Demand Charts


Server Software By:
Icecast.org
Liquidsoap